This is the latest recevied weather packets stored in our database for station/object DO6DD-13. If no packets are shown the sender has not sent any weather packets the latest 10 day(s).
| Time | Temp. | Humidity | Pressure | Rain* | Wind** | Luminosity | Snow |
|---|---|---|---|---|---|---|---|
| 1777479018 | 15.56° C | 34% | 1028.2 hPa | - | - | 50 W/m² | - |
| 1777478417 | 16.11° C | 34% | 1028.1 hPa | - | - | 54 W/m² | - |
| 1777477816 | 16.11° C | 34% | 1028 hPa | - | - | 58 W/m² | - |
| 1777477216 | 16.11° C | 34% | 1028.1 hPa | - | - | 60 W/m² | - |
| 1777476616 | 16.11° C | 34% | 1028.1 hPa | - | - | 64 W/m² | - |
| 1777476015 | 16.11° C | 34% | 1028.1 hPa | - | - | 252 W/m² | - |
| 1777475425 | 16.67° C | 33% | 1028.2 hPa | - | - | 496 W/m² | - |
| 1777474824 | 16.67° C | 33% | 1028.3 hPa | - | - | 524 W/m² | - |
| 1777474224 | 16.67° C | 34% | 1028.3 hPa | - | - | 544 W/m² | - |
| 1777473623 | 16.67° C | 33% | 1028.4 hPa | - | - | 566 W/m² | - |
| 1777473033 | 17.22° C | 34% | 1028.4 hPa | - | - | 588 W/m² | - |
| 1777472422 | 16.67° C | 34% | 1028.4 hPa | - | - | 610 W/m² | - |
| 1777471822 | 16.67° C | 33% | 1028.4 hPa | - | - | 630 W/m² | - |
| 1777471221 | 16.67° C | 32% | 1028.5 hPa | - | - | 648 W/m² | - |
| 1777470621 | 16.67° C | 33% | 1028.5 hPa | - | - | 666 W/m² | - |
| 1777470020 | 16.67° C | 33% | 1028.5 hPa | - | - | 682 W/m² | - |
| 1777469420 | 16.67° C | 33% | 1028.6 hPa | - | - | 700 W/m² | - |
| 1777468819 | 16.67° C | 33% | 1028.6 hPa | - | - | 712 W/m² | - |
| 1777468219 | 16.67° C | 34% | 1028.6 hPa | - | - | 724 W/m² | - |
| 1777467619 | 16.67° C | 35% | 1028.6 hPa | - | - | 736 W/m² | - |
| 1777467018 | 16.67° C | 34% | 1028.6 hPa | - | - | 746 W/m² | - |
| 1777466417 | 16.11° C | 33% | 1028.6 hPa | - | - | 752 W/m² | - |
| 1777465817 | 16.67° C | 32% | 1028.6 hPa | - | - | 766 W/m² | - |
| 1777465216 | 16.67° C | 33% | 1028.7 hPa | - | - | 772 W/m² | - |
| 1777464616 | 16.67° C | 33% | 1028.8 hPa | - | - | 778 W/m² | - |
* Rain since midnight (hover to see other rain measurements)
** Current wind speed in m/s (hover to see current wind gust speed)